Weather History for Audubon, IA

Change the Weather History Date:

Saturday, November 19, 2011

  Actual Average Record
Temperature  
Mean Temperature 36 °F -  
Max Temperature 46 °F 47 °F 69 °F (1953)
Min Temperature 26 °F 26 °F 7 °F (1955)
Degree Days  
Heating Degree Days 29    
Moisture  
Dew Point 30 °F    
Average Humidity 81    
Maximum Humidity 87    
Minimum Humidity 71    
Precipitation  
Precipitation 0.00 in - - ()
Sea Level Pressure  
Sea Level Pressure 29.72 in    
Wind  
Wind Speed 6 mph (NNW)    
Max Wind Speed 22 mph    
Max Gust Speed 28 mph    
Visibility 10 miles    
Events      
Averages and records for this station are not official NWS values.
T = Trace of Precipitation, MM = Missing Value Source: NWS Daily Summary

Daily Weather History Graph

Daily Weather History Graph

Search for Another Location

Airport:

Trip Planner

Search our weather history database for the weather conditions in past years. The results will help you decide how hot, cold, wet, or windy it might be!

Date:

Astronomy

Nov. 19, 2011 Rise Set
Actual Time 7:13 AM CST 4:56 PM CST
Civil Twilight 6:43 AM CST 5:26 PM CST
Nautical Twilight 6:09 AM CST 6:00 PM CST
Astronomical Twilight 5:36 AM CST 6:33 PM CST
Moon 12:29 AM CST 1:18 PM CST
Length of Visible Light 10h 43m
Length of Day
9h 42m
Last Quarter, 38% of the Moon is Illuminated
Nov 19
Last Quarter
Nov 25
New
Dec 2
First Quarter
Dec 10
Full
Dec 17
Last Quarter

Hourly Weather History & Observations

Time (CST) Temp. Windchill Dew Point Humidity Pressure Visibility Wind Dir Wind Speed Gust Speed Precip Events Conditions
12:15 AM 39.2 °F 35.0 °F 33.8 °F 81% 29.69 in 10.0 mi South 5.8 mph - N/A   Clear
12:35 AM 39.2 °F 34.2 °F 33.8 °F 81% 29.69 in 10.0 mi South 6.9 mph - N/A   Clear
12:55 AM 39.2 °F 37.0 °F 33.8 °F 81% 29.68 in 10.0 mi South 3.5 mph - N/A   Clear
1:15 AM 35.6 °F - 28.4 °F 75% 29.68 in 10.0 mi Calm Calm - N/A   Clear
1:35 AM 33.8 °F - 28.4 °F 81% 29.68 in 10.0 mi Calm Calm - N/A   Clear
1:55 AM 33.8 °F - 28.4 °F 81% 29.67 in 10.0 mi Calm Calm - N/A   Clear
2:15 AM 33.8 °F - 28.4 °F 81% 29.67 in 10.0 mi Calm Calm - N/A   Clear
2:35 AM 33.8 °F - 28.4 °F 81% 29.66 in 10.0 mi Calm Calm - N/A   Clear
2:55 AM 30.2 °F - 26.6 °F 86% 29.67 in 10.0 mi Calm Calm - N/A   Clear
3:15 AM 30.2 °F - 24.8 °F 80% 29.67 in 10.0 mi Calm Calm - N/A   Clear
3:35 AM 30.2 °F - 24.8 °F 80% 29.66 in 10.0 mi Calm Calm - N/A   Clear
3:55 AM 30.2 °F - 26.6 °F 86% 29.65 in 10.0 mi Calm Calm - N/A   Mostly Cloudy
4:15 AM 33.8 °F - 28.4 °F 81% 29.65 in 10.0 mi Calm Calm - N/A   Overcast
4:35 AM 35.6 °F - 30.2 °F 81% 29.64 in 10.0 mi Calm Calm - N/A   Overcast
4:55 AM 37.4 °F - 32.0 °F 81% 29.63 in 10.0 mi Calm Calm - N/A   Overcast
5:15 AM 39.2 °F - 35.6 °F 87% 29.63 in 10.0 mi Calm Calm - N/A   Mostly Cloudy
5:35 AM 41.0 °F 39.0 °F 37.4 °F 87% 29.62 in 10.0 mi SE 3.5 mph - N/A   Mostly Cloudy
6:15 AM 44.6 °F - 37.4 °F 76% 29.61 in 10.0 mi Calm Calm - N/A   Overcast
6:35 AM 44.6 °F - 37.4 °F 76% 29.60 in 10.0 mi Calm Calm - N/A   Overcast
6:55 AM 44.6 °F 40.7 °F 39.2 °F 81% 29.59 in 10.0 mi SE 6.9 mph - N/A   Overcast
7:15 AM 44.6 °F 41.4 °F 37.4 °F 76% 29.56 in 10.0 mi SE 5.8 mph - N/A   Overcast
7:35 AM 44.6 °F 41.4 °F 37.4 °F 76% 29.56 in 10.0 mi SSE 5.8 mph - N/A   Overcast
7:55 AM 46.4 °F 45.2 °F 37.4 °F 71% 29.57 in 10.0 mi SSE 3.5 mph - N/A   Overcast
8:15 AM 46.4 °F 43.5 °F 39.2 °F 76% 29.57 in 10.0 mi NE 5.8 mph - N/A   Overcast
8:35 AM 42.8 °F 39.3 °F 35.6 °F 76% 29.59 in 10.0 mi North 5.8 mph - N/A   Overcast
8:55 AM 39.2 °F 34.2 °F 33.8 °F 81% 29.59 in 10.0 mi North 6.9 mph - N/A   Overcast
9:15 AM 39.2 °F 37.0 °F 33.8 °F 81% 29.59 in 10.0 mi North 3.5 mph - N/A   Overcast
9:35 AM 39.2 °F 33.6 °F 33.8 °F 81% 29.61 in 10.0 mi North 8.1 mph - N/A   Overcast
9:55 AM 39.2 °F 34.2 °F 33.8 °F 81% 29.59 in 10.0 mi North 6.9 mph - N/A   Overcast
10:15 AM 37.4 °F 32.8 °F 33.8 °F 87% 29.59 in 10.0 mi North 5.8 mph - N/A   Overcast
10:55 AM 41.0 °F 38.0 °F 35.6 °F 81% 29.58 in 10.0 mi NNE 4.6 mph - N/A   Overcast
11:15 AM 42.8 °F 40.1 °F 35.6 °F 76% 29.57 in 10.0 mi North 4.6 mph - N/A   Overcast
11:35 AM 42.8 °F 39.3 °F 35.6 °F 76% 29.57 in 10.0 mi North 5.8 mph - N/A   Mostly Cloudy
11:55 AM 42.8 °F 37.5 °F 35.6 °F 76% 29.59 in 10.0 mi North 9.2 mph - N/A   Mostly Cloudy
12:15 PM 39.2 °F 30.2 °F 33.8 °F 81% 29.60 in 10.0 mi NNW 17.3 mph - N/A   Overcast
12:35 PM 37.4 °F 29.3 °F 33.8 °F 87% 29.61 in 10.0 mi NNW 12.7 mph - N/A   Overcast
12:55 PM 37.4 °F 29.3 °F 32.0 °F 81% 29.61 in 7.0 mi NNW 12.7 mph - N/A   Mostly Cloudy
1:35 PM 37.4 °F 28.2 °F 32.0 °F 81% 29.65 in 10.0 mi NNW 16.1 mph 20.7 mph N/A   Overcast
1:55 PM 35.6 °F 24.5 °F 30.2 °F 81% 29.68 in 10.0 mi NNW 20.7 mph 26.5 mph N/A   Overcast
2:15 PM 35.6 °F 26.2 °F 30.2 °F 81% 29.70 in 10.0 mi NNW 15.0 mph 25.3 mph N/A   Overcast
2:35 PM 35.6 °F 25.2 °F 30.2 °F 81% 29.71 in 7.0 mi NNW 18.4 mph 24.2 mph N/A   Overcast
3:15 PM 33.8 °F 23.2 °F 28.4 °F 81% 29.77 in 10.0 mi NNW 17.3 mph 24.2 mph N/A   Overcast
3:35 PM 32.0 °F 21.6 °F 26.6 °F 80% 29.79 in 10.0 mi NNW 15.0 mph 24.2 mph N/A   Overcast
3:55 PM 30.2 °F 19.3 °F 26.6 °F 86% 29.82 in 10.0 mi NW 15.0 mph 21.9 mph N/A   Overcast
4:15 PM 30.2 °F 17.1 °F 24.8 °F 80% 29.83 in 10.0 mi NW 21.9 mph 26.5 mph N/A   Overcast
4:35 PM 28.4 °F 15.8 °F 24.8 °F 86% 29.85 in 7.0 mi NW 18.4 mph 24.2 mph N/A   Overcast
4:55 PM 28.4 °F 16.6 °F 24.8 °F 86% 29.87 in 10.0 mi NW 16.1 mph 27.6 mph N/A   Overcast
5:15 PM 28.4 °F 17.0 °F 24.8 °F 86% 29.89 in 10.0 mi NW 15.0 mph 24.2 mph N/A   Overcast
5:35 PM 28.4 °F 16.2 °F 24.8 °F 86% 29.91 in 10.0 mi NNW 17.3 mph 24.2 mph N/A   Overcast
5:55 PM 28.4 °F 18.0 °F 24.8 °F 86% 29.92 in 10.0 mi NNW 12.7 mph 18.4 mph N/A   Overcast
6:15 PM 28.4 °F 19.7 °F 24.8 °F 86% 29.95 in 10.0 mi NW 9.2 mph - N/A   Overcast
6:35 PM 28.4 °F 18.5 °F 24.8 °F 86% 29.97 in 10.0 mi NW 11.5 mph 19.6 mph N/A   Overcast
7:15 PM 28.4 °F 17.5 °F 23.0 °F 80% 29.99 in 10.0 mi NNW 13.8 mph 20.7 mph N/A   Overcast
7:35 PM 28.4 °F 17.5 °F 23.0 °F 80% 30.01 in 10.0 mi NW 13.8 mph 20.7 mph N/A   Overcast
7:55 PM 26.6 °F 14.7 °F 21.2 °F 80% 30.03 in 10.0 mi NW 15.0 mph 25.3 mph N/A   Overcast
8:15 PM 26.6 °F 13.8 °F 21.2 °F 80% 30.03 in 10.0 mi NW 17.3 mph 24.2 mph N/A   Overcast
8:35 PM 26.6 °F 13.8 °F 21.2 °F 80% 30.05 in 10.0 mi NNW 17.3 mph 24.2 mph N/A   Overcast
8:55 PM 26.6 °F 14.3 °F 21.2 °F 80% 30.07 in 10.0 mi NW 16.1 mph 21.9 mph N/A   Overcast
9:15 PM 26.6 °F 15.2 °F 19.4 °F 74% 30.09 in 10.0 mi NNW 13.8 mph 20.7 mph N/A   Overcast
9:35 PM 24.8 °F 12.9 °F 19.4 °F 80% 30.10 in 10.0 mi NNW 13.8 mph 23.0 mph N/A   Overcast
10:35 PM 24.8 °F 10.7 °F 19.4 °F 80% 30.10 in 10.0 mi North 19.6 mph - N/A   Overcast
10:55 PM 24.8 °F 13.4 °F 19.4 °F 80% 30.12 in 10.0 mi North 12.7 mph 20.7 mph N/A   Overcast
11:15 PM 24.8 °F 14.0 °F 19.4 °F 80% 30.12 in 10.0 mi NNW 11.5 mph 19.6 mph N/A   Overcast
11:35 PM 24.8 °F 13.4 °F 19.4 °F 80% 30.14 in 10.0 mi North 12.7 mph 19.6 mph N/A   Overcast
11:55 PM 24.8 °F 13.4 °F 19.4 °F 80% 30.15 in 10.0 mi North 12.7 mph - N/A   Overcast